Location: Newark
(25.6108°S, 54.5803°W)
Time: 16:18:46
(UTC+00:00)

Altair - All Passes

Search period start: 21 October 2020 00:00
Search period end: 31 October 2020 00:00
Orbit: 1502 x 1682 km, 47.2° (Epoch: 20 October)

Date Brightness Start Highest point End Pass type
(mag) Time Alt. Az. Time Alt. Az. Time Alt. Az.
21 Oct - 02:07:24 10° SW 02:13:53 19° S 02:20:14 10° SE visible
21 Oct - 04:12:44 10° SW 04:21:21 38° SSE 04:29:44 10° E visible
21 Oct - 06:17:15 10° SW 06:26:26 67° NW 06:35:29 10° NNE visible
21 Oct - 08:27:19 10° WNW 08:30:03 12° WNW 08:32:48 10° NW visible
21 Oct - 19:21:46 10° N 19:29:55 28° NE 19:37:57 10° ESE daylight
21 Oct - 21:24:05 10° NW 21:34:12 77° SW 21:44:02 10° SE daylight
21 Oct - 23:32:09 10° WSW 23:40:18 28° SSW 23:48:16 10° SSE visible
22 Oct - 01:41:59 10° SW 01:48:27 19° S 01:54:45 10° SE visible
22 Oct - 03:47:35 10° SW 03:56:04 35° SSE 04:04:18 10° E visible
22 Oct - 05:52:01 10° SW 06:01:18 73° NW 06:10:25 10° NE visible
22 Oct - 08:00:48 10° W 08:04:58 14° WNW 08:09:08 10° NNW visible
22 Oct - 18:57:03 10° N 19:04:47 25° NE 19:12:24 10° ESE daylight
22 Oct - 20:58:49 10° NW 21:08:59 83° SW 21:18:52 10° SE daylight
22 Oct - 23:06:32 10° W 23:14:55 30° SSW 23:23:06 10° SSE visible
23 Oct - 01:16:31 10° SW 01:22:59 19° S 01:29:18 10° SE visible
23 Oct - 03:22:25 10° SW 03:30:45 33° SSE 03:38:51 10° E visible
23 Oct - 05:26:48 10° SW 05:36:10 80° NW 05:45:20 10° NE visible
23 Oct - 07:34:45 10° W 07:39:53 16° NW 07:45:01 10° NNW visible
23 Oct - 18:32:26 10° N 18:39:40 22° NE 18:46:48 10° E daylight
23 Oct - 20:33:36 10° NW 20:43:46 89° SW 20:53:42 10° SE daylight
23 Oct - 22:40:57 10° W 22:49:34 32° SSW 22:57:57 10° SE visible
24 Oct - 00:51:02 10° SW 00:57:32 19° S 01:03:53 10° SE visible
24 Oct - 02:57:14 10° SW 03:05:26 31° SSE 03:13:23 10° E visible
24 Oct - 05:01:36 10° SW 05:11:01 88° NW 05:20:13 10° NE visible
24 Oct - 07:08:56 10° W 07:14:49 19° NW 07:20:42 10° NNW visible
24 Oct - 18:07:55 10° NNE 18:14:32 20° NE 18:21:05 10° E daylight
24 Oct - 20:08:24 10° NW 20:18:34 84° NE 20:28:32 10° SE daylight
24 Oct - 22:15:24 10° W 22:24:13 34° SSW 22:32:50 10° SE visible
25 Oct - 00:25:31 10° SW 00:32:04 19° S 00:38:29 10° SE visible
25 Oct - 02:32:04 10° SSW 02:40:06 29° SSE 02:47:55 10° E visible
25 Oct - 04:36:25 10° SW 04:45:52 85° SE 04:55:04 10° NE visible
25 Oct - 06:43:14 10° W 06:49:44 22° NW 06:56:13 10° N visible
25 Oct - 17:43:32 10° NNE 17:49:25 17° NE 17:55:14 10° E daylight
25 Oct - 19:43:14 10° NW 19:53:23 77° NE 20:03:20 10° SE daylight
25 Oct - 21:49:51 10° W 21:58:52 36° SSW 22:07:41 10° SE daylight
25 Oct - 23:59:58 10° SW 00:06:36 20° S 00:13:07 10° SE visible
26 Oct - 02:06:52 10° SSW 02:14:45 28° SSE 02:22:24 10° ESE visible
26 Oct - 04:11:13 10° SW 04:20:43 79° SE 04:29:54 10° NE visible
26 Oct - 06:17:38 10° WSW 06:24:39 25° NW 06:31:38 10° N night (unlit)
26 Oct - 17:19:21 10° NNE 17:24:17 15° ENE 17:29:11 10° E daylight
26 Oct - 19:18:06 10° NW 19:28:12 71° NE 19:38:06 10° SE daylight
26 Oct - 21:24:19 10° W 21:33:32 39° SSW 21:42:33 10° SE daylight
26 Oct - 23:34:23 10° SW 23:41:09 20° S 23:47:46 10° SE visible
27 Oct - 01:41:38 10° SSW 01:49:23 26° SSE 01:56:54 10° ESE visible
27 Oct - 03:46:04 10° SW 03:55:32 72° SE 04:04:42 10° NE visible
27 Oct - 05:52:06 10° WSW 05:59:35 28° NW 06:06:59 10° N night (unlit)
27 Oct - 16:55:32 10° NE 16:59:10 12° ENE 17:02:48 10° E daylight
27 Oct - 18:53:00 10° NNW 19:03:01 65° NE 19:12:52 10° SE daylight
27 Oct - 20:58:49 10° W 21:08:13 42° SSW 21:17:26 10° SE daylight
27 Oct - 23:08:47 10° SW 23:15:42 20° S 23:22:28 10° SE visible
28 Oct - 01:16:24 10° SSW 01:24:00 25° SSE 01:31:22 10° ESE visible
28 Oct - 03:20:53 10° SW 03:30:20 67° SE 03:39:28 10° ENE visible
28 Oct - 05:26:38 10° WSW 05:34:30 32° NW 05:42:16 10° N night (unlit)
28 Oct - 16:32:59 10° NE 16:34:03 10° ENE 16:35:06 10° ENE daylight
28 Oct - 18:27:56 10° NNW 18:37:50 59° NE 18:47:36 10° SE daylight
28 Oct - 20:33:21 10° WNW 20:42:55 45° SSW 20:52:18 10° SE daylight
28 Oct - 22:43:10 10° WSW 22:50:14 21° S 22:57:10 10° SE visible
29 Oct - 00:51:09 10° SW 00:58:37 24° SSE 01:05:51 10° ESE visible
29 Oct - 02:55:43 10° SW 03:05:08 61° SE 03:14:13 10° ENE visible
29 Oct - 05:01:13 10° WSW 05:09:26 36° NW 05:17:29 10° N visible
29 Oct - 18:02:54 10° NNW 18:12:40 53° NE 18:22:20 10° ESE daylight
29 Oct - 20:07:54 10° WNW 20:17:37 49° SW 20:27:09 10° SE daylight
29 Oct - 22:17:33 10° WSW 22:24:47 22° SSW 22:31:54 10° SE visible
30 Oct - 00:25:51 10° SW 00:33:12 23° SSE 00:40:19 10° ESE visible
30 Oct - 02:30:32 10° SW 02:39:56 56° SE 02:48:57 10° ENE visible
30 Oct - 04:35:50 10° WSW 04:44:20 40° NW 04:52:40 10° NNE visible
30 Oct - 17:37:55 10° NNW 17:47:30 48° NE 17:57:01 10° ESE daylight
30 Oct - 19:42:29 10° WNW 19:52:19 52° SW 20:02:01 10° SE daylight
30 Oct - 21:51:54 10° WSW 21:59:20 23° SSW 22:06:38 10° SE daylight
